Regional Weather Roundup
Issued by NWS

Home | Current Version | Previous Version | Graphics & Text | Print | Product List | Glossary On
Versions: 1 2 3 4 5 6 7 8 9 10 11 12 13 14 15 16 17 18 19 20 21 22 23 24 25 26 27 28 29 30 31 32 33 34 35 36 37 38 39 40 41 42 43 44 45 46 47 48 49 50
978
ASUS43 KLSX 042310
RWRMO

WEATHER SUMMARY FOR MISSOURI
NATIONAL WEATHER SERVICE SPRINGFIELD MO
600 PM CDT WED MAY 04 2016

NOTE: "FAIR" INDICATES FEW OR NO CLOUDS BELOW 12,000 FEET WITH NO
       SIGNIFICANT WEATHER AND/OR OBSTRUCTIONS TO VISIBILITY.
       CURRENT SKY AND/OR WEATHER CONDITIONS ARE NOT AVAILABLE FOR
       CHILLICOTHE AND FARMINGTON.

MOZ001>031-035>038-043-044-053-054-050000-
...NORTHERN AND WESTERN MISSOURI...

CITY           SKY/WX    TMP DP  RH WIND       PRES   REMARKS
KANSAS CTY INT SUNNY     68  38  33 N14       29.97S
KANSAS C DTWN  SUNNY     70  35  27 N14       29.96S
LEE`S SUMMIT   SUNNY     69  38  32 N15G25    29.97S
ST JOSEPH      SUNNY     70  35  27 N18G25    29.98S
CHILLICOTHE      N/A     68  37  32 VRB7G16   29.96S
KIRKSVILLE     SUNNY     64  33  31 N15G23    29.94R

$$
MOZ066>068-077>081-088>096-101>105-050000-
...SOUTHWEST MISSOURI...

CITY           SKY/WX    TMP DP  RH WIND       PRES   REMARKS
SPRINGFIELD    SUNNY     69  39  33 NW15      29.93R
JOPLIN         SUNNY     70  39  32 N16G23    29.97R
BRANSON        SUNNY     68  37  32 NW13G22   29.93R

$$
MOZ032>034-039>042-045>050-055>058-069>072-050000-
...CENTRAL MISSOURI...

CITY           SKY/WX    TMP DP  RH WIND       PRES   REMARKS
COLUMBIA       SUNNY     67  33  28 N20G28    29.91R
JEFFERSON CITY SUNNY     68  33  27 NW14G21   29.90R
ROLLA          MOSUNNY   65  38  36 N14G25    29.88R
SEDALIA        SUNNY     69  37  30 NW17      29.94S
WHITEMAN AFB   MOSUNNY   68  38  33 N14       29.93S
OSAGE BEACH    SUNNY     66  36  32 NW10G21   29.92R

$$
MOZ051-052-059>065-050000-
...EAST CENTRAL MISSOURI...

CITY           SKY/WX    TMP DP  RH WIND       PRES   REMARKS
ST LOUIS INTL  MOSUNNY   64  36  35 NW15G22   29.86R
SPIRIT OF STL  MOSUNNY   65  36  34 NW14G26   29.86R
ST CHARLES     PTSUNNY   63  37  38 NW20G26   29.85S

$$
MOZ072>076-082>087-097>100-106>115-050000-
...SOUTH CENTRAL AND SOUTHEAST MISSOURI...

CITY           SKY/WX    TMP DP  RH WIND       PRES   REMARKS
CAPE GIRARDEAU SUNNY     68  40  35 N17G26    29.80R
FARMINGTON     MOSUNNY   65  37  35 N15       29.85R
POPLAR BLUFF   SUNNY     72  37  28 N20       29.80R
WEST PLAINS    SUNNY     69  34  27 NW16G26   29.88R

$$




USA.gov is the U.S. government's official web portal to all federal, state and local government web resources and services.